When you browse on this site, cookies collect data to enhance your experience and personalize the content and advertising you see.
Visit our Privacy Policy to learn more. By continuing to use the site, you agree to this use of cookies and data.
  • In United Kingdom
  • List of Countries
  • For 7 days
  • Water Temperature
  • Weather Map
  • Weather Widgets
  • user-avatar
    Login

    Hourly Weather Bulawayo

    Today, 16 September, Monday

    Time Temperature Precipitation Wind Pressure Humidity
    00:00 +17°C° 0 mm 5 mps 652 mmHg 54%
    01:00 +17°C° 0 mm 4 mps 651 mmHg 58%
    02:00 +15°C° 0 mm 4 mps 651 mmHg 62%
    03:00 +15°C° 0 mm 4 mps 651 mmHg 62%
    04:00 +14°C° 0 mm 3 mps 651 mmHg 63%
    05:00 +14°C° 0 mm 3 mps 651 mmHg 63%
    06:00 +17°C° 0 mm 3 mps 652 mmHg 53%
    07:00 +19°C° 0 mm 3 mps 653 mmHg 42%
    08:00 +22°C° 0 mm 3 mps 654 mmHg 32%
    09:00 +26°C° 0 mm 4 mps 654 mmHg 24%
    10:00 +29°C° 0 mm 4 mps 655 mmHg 16%
    11:00 +33°C° 0 mm 5 mps 655 mmHg 8%
    12:00 +33°C° 0 mm 5 mps 654 mmHg 8%
    13:00 +34°C° 0 mm 5 mps 654 mmHg 8%
    14:00 +34°C° 0 mm 6 mps 653 mmHg 8%
    15:00 +33°C° 0 mm 6 mps 653 mmHg 9%
    16:00 +32°C° 0 mm 6 mps 652 mmHg 11%
    17:00 +30°C° 0 mm 6 mps 652 mmHg 13%
    18:00 +28°C° 0 mm 6 mps 652 mmHg 17%
    19:00 +26°C° 0 mm 5 mps 652 mmHg 22%
    20:00 +22°C° 0 mm 5 mps 652 mmHg 26%
    21:00 +21°C° 0 mm 5 mps 652 mmHg 31%
    22:00 +20°C° 0 mm 5 mps 652 mmHg 36%
    23:00 +19°C° 0 mm 5 mps 652 mmHg 40%

    Tomorrow, 17 September, Tuesday

    Time Temperature Precipitation Wind Pressure Humidity
    00:00 +19°C° 0 mm 4 mps 652 mmHg 44%
    01:00 +18°C° 0 mm 4 mps 651 mmHg 48%
    02:00 +17°C° 0 mm 4 mps 651 mmHg 52%
    03:00 +16°C° 0 mm 3 mps 651 mmHg 54%
    04:00 +14°C° 0 mm 3 mps 650 mmHg 57%
    05:00 +14°C° 0 mm 2 mps 650 mmHg 59%
    06:00 +17°C° 0 mm 2 mps 651 mmHg 50%
    07:00 +19°C° 0 mm 2 mps 652 mmHg 40%
    08:00 +22°C° 0 mm 3 mps 654 mmHg 31%
    09:00 +26°C° 0 mm 4 mps 654 mmHg 25%
    10:00 +29°C° 0 mm 5 mps 654 mmHg 19%
    11:00 +33°C° 0 mm 6 mps 655 mmHg 13%
    12:00 +33°C° 0 mm 6 mps 654 mmHg 12%
    13:00 +34°C° 0 mm 7 mps 653 mmHg 11%
    14:00 +35°C° 0 mm 7 mps 653 mmHg 10%
    15:00 +34°C° 0 mm 7 mps 652 mmHg 11%
    16:00 +33°C° 0 mm 7 mps 652 mmHg 12%
    17:00 +32°C° 0 mm 7 mps 652 mmHg 13%
    18:00 +28°C° 0 mm 6 mps 652 mmHg 18%
    19:00 +26°C° 0 mm 6 mps 652 mmHg 23%
    20:00 +23°C° 0 mm 5 mps 651 mmHg 28%
    21:00 +22°C° 0 mm 5 mps 652 mmHg 32%
    22:00 +21°C° 0 mm 5 mps 652 mmHg 37%
    23:00 +20°C° 0 mm 5 mps 652 mmHg 42%

    Day after tomorrow, 18 September, Wednesday

    Time Temperature Precipitation Wind Pressure Humidity
    00:00 +19°C° 0 mm 5 mps 652 mmHg 45%
    01:00 +18°C° 0 mm 4 mps 651 mmHg 49%
    02:00 +17°C° 0 mm 4 mps 651 mmHg 52%
    03:00 +15°C° 0 mm 4 mps 651 mmHg 56%
    04:00 +14°C° 0 mm 3 mps 650 mmHg 59%
    05:00 +13°C° 0 mm 3 mps 650 mmHg 62%
    06:00 +16°C° 0 mm 3 mps 651 mmHg 52%
    07:00 +19°C° 0 mm 4 mps 652 mmHg 43%
    08:00 +21°C° 0 mm 5 mps 653 mmHg 34%
    09:00 +25°C° 0 mm 5 mps 654 mmHg 26%
    10:00 +28°C° 0 mm 6 mps 654 mmHg 18%
    11:00 +32°C° 0 mm 6 mps 654 mmHg 10%
    12:00 +33°C° 0 mm 7 mps 654 mmHg 9%
    13:00 +33°C° 0 mm 7 mps 653 mmHg 9%
    14:00 +34°C° 0 mm 7 mps 653 mmHg 9%
    15:00 +33°C° 0 mm 7 mps 652 mmHg 10%
    16:00 +32°C° 0 mm 7 mps 652 mmHg 10%
    17:00 +30°C° 0 mm 6 mps 652 mmHg 11%
    18:00 +28°C° 0 mm 6 mps 651 mmHg 14%
    19:00 +25°C° 0 mm 5 mps 651 mmHg 17%
    20:00 +21°C° 0 mm 4 mps 651 mmHg 21%
    21:00 +20°C° 0 mm 4 mps 651 mmHg 22%
    22:00 +19°C° 0 mm 4 mps 651 mmHg 24%
    23:00 +18°C° 0 mm 4 mps 651 mmHg 26%

    19 September, Thursday

    Time Temperature Precipitation Wind Pressure Humidity
    00:00 +18°C° 0 mm 4 mps 651 mmHg 30%
    01:00 +17°C° 0 mm 4 mps 651 mmHg 33%
    02:00 +15°C° 0 mm 4 mps 650 mmHg 37%
    03:00 +14°C° 0 mm 4 mps 650 mmHg 40%
    04:00 +13°C° 0 mm 3 mps 650 mmHg 43%
    05:00 +12°C° 0 mm 3 mps 650 mmHg 46%
    06:00 +16°C° 0 mm 3 mps 651 mmHg 39%
    07:00 +18°C° 0 mm 4 mps 652 mmHg 33%
    08:00 +21°C° 0 mm 4 mps 653 mmHg 26%
    09:00 +25°C° 0 mm 5 mps 653 mmHg 20%
    10:00 +28°C° 0 mm 5 mps 654 mmHg 14%
    11:00 +32°C° 0 mm 6 mps 654 mmHg 7%
    12:00 +33°C° 0 mm 6 mps 654 mmHg 6%
    13:00 +34°C° 0 mm 6 mps 653 mmHg 5%
    14:00 +35°C° 0 mm 6 mps 653 mmHg 5%
    15:00 +34°C° 0 mm 6 mps 652 mmHg 5%
    16:00 +33°C° 0 mm 6 mps 652 mmHg 5%
    17:00 +32°C° 0 mm 6 mps 651 mmHg 5%
    18:00 +28°C° 0 mm 6 mps 651 mmHg 7%
    19:00 +26°C° 0 mm 6 mps 651 mmHg 9%
    20:00 +22°C° 0 mm 5 mps 651 mmHg 11%
    21:00 +21°C° 0 mm 6 mps 651 mmHg 15%
    22:00 +20°C° 0 mm 6 mps 651 mmHg 18%
    23:00 +19°C° 0 mm 6 mps 651 mmHg 21%

    20 September, Friday

    Time Temperature Precipitation Wind Pressure Humidity
    00:00 +17°C° 0 mm 6 mps 651 mmHg 25%
    01:00 +17°C° 0 mm 5 mps 651 mmHg 29%
    02:00 +16°C° 0 mm 5 mps 650 mmHg 33%
    03:00 +15°C° 0 mm 5 mps 650 mmHg 34%
    04:00 +14°C° 0 mm 4 mps 650 mmHg 35%
    05:00 +14°C° 0 mm 4 mps 650 mmHg 36%
    06:00 +17°C° 0 mm 4 mps 651 mmHg 32%
    07:00 +19°C° 0 mm 4 mps 652 mmHg 27%
    08:00 +22°C° 0 mm 5 mps 653 mmHg 23%
    09:00 +26°C° 0 mm 5 mps 654 mmHg 17%
    10:00 +28°C° 0 mm 4 mps 654 mmHg 12%
    11:00 +32°C° 0 mm 4 mps 654 mmHg 7%
    12:00 +33°C° 0 mm 4 mps 653 mmHg 6%
    13:00 +34°C° 0 mm 4 mps 653 mmHg 5%
    14:00 +35°C° 0 mm 4 mps 652 mmHg 4%
    15:00 +34°C° 0 mm 4 mps 652 mmHg 5%
    16:00 +34°C° 0 mm 5 mps 651 mmHg 5%
    17:00 +33°C° 0 mm 5 mps 650 mmHg 6%
    18:00 +29°C° 0 mm 5 mps 650 mmHg 8%
    19:00 +26°C° 0 mm 5 mps 650 mmHg 9%
    20:00 +22°C° 0 mm 5 mps 650 mmHg 11%
    21:00 +21°C° 0 mm 5 mps 650 mmHg 12%
    22:00 +20°C° 0 mm 5 mps 650 mmHg 14%
    23:00 +19°C° 0 mm 5 mps 650 mmHg 15%

    21 September, Saturday

    Time Temperature Precipitation Wind Pressure Humidity
    00:00 +18°C° 0 mm 4 mps 650 mmHg 18%
    01:00 +18°C° 0 mm 4 mps 650 mmHg 20%
    02:00 +17°C° 0 mm 4 mps 649 mmHg 23%
    03:00 +16°C° 0 mm 3 mps 649 mmHg 27%
    04:00 +16°C° 0 mm 3 mps 649 mmHg 30%
    05:00 +14°C° 0 mm 3 mps 649 mmHg 34%
    06:00 +17°C° 0 mm 3 mps 650 mmHg 29%
    07:00 +20°C° 0 mm 4 mps 651 mmHg 25%
    08:00 +23°C° 0 mm 5 mps 652 mmHg 21%
    09:00 +26°C° 0 mm 4 mps 652 mmHg 17%
    10:00 +29°C° 0 mm 4 mps 652 mmHg 12%
    11:00 +33°C° 0 mm 4 mps 652 mmHg 8%
    12:00 +34°C° 0 mm 3 mps 652 mmHg 7%
    13:00 +35°C° 0 mm 3 mps 651 mmHg 6%
    14:00 +36°C° 0 mm 2 mps 651 mmHg 5%
    15:00 +35°C° 0 mm 3 mps 650 mmHg 6%
    16:00 +35°C° 0 mm 3 mps 650 mmHg 6%
    17:00 +34°C° 0 mm 3 mps 649 mmHg 6%
    18:00 +30°C° 0 mm 4 mps 649 mmHg 9%
    19:00 +27°C° 0 mm 4 mps 649 mmHg 12%
    20:00 +23°C° 0 mm 4 mps 648 mmHg 14%
    21:00 +22°C° 0 mm 4 mps 648 mmHg 16%
    22:00 +21°C° 0 mm 4 mps 649 mmHg 18%
    23:00 +20°C° 0 mm 4 mps 649 mmHg 19%
    Show more